When you browse on this site, cookies collect data to enhance your experience and personalize the content and advertising you see.
Visit our Privacy Policy to learn more. By continuing to use the site, you agree to this use of cookies and data.
  • In Czech Republic
  • List of Countries
  • For 7 days
  • Water Temperature
  • Weather Map
  • Weather Widgets
  • user-avatar
    Login

    Hourly Weather Tegucigalpa

    Today, 21 October, Monday

    Time Temperature Precipitation Wind Pressure Humidity
    00:00 +18°C° 0.1 mm 0 mps 673 mmHg 94%
    01:00 +18°C° 0.3 mm 0 mps 672 mmHg 94%
    02:00 +18°C° 0.3 mm 0 mps 672 mmHg 95%
    03:00 +18°C° 0.3 mm 0 mps 672 mmHg 96%
    04:00 +18°C° 0 mm 0 mps 672 mmHg 96%
    05:00 +18°C° 0 mm 0 mps 672 mmHg 96%
    06:00 +17°C° 0 mm 0 mps 673 mmHg 96%
    07:00 +20°C° 0 mm 0 mps 673 mmHg 90%
    08:00 +24°C° 0 mm 1 mps 674 mmHg 83%
    09:00 +26°C° 0 mm 1 mps 675 mmHg 77%
    10:00 +26°C° 0.5 mm 1 mps 675 mmHg 75%
    11:00 +27°C° 0.5 mm 2 mps 674 mmHg 73%
    12:00 +27°C° 0.5 mm 2 mps 674 mmHg 71%
    13:00 +27°C° 0.8 mm 2 mps 673 mmHg 74%
    14:00 +26°C° 0.8 mm 2 mps 673 mmHg 78%
    15:00 +26°C° 0.8 mm 2 mps 672 mmHg 81%
    16:00 +24°C° 0.8 mm 2 mps 672 mmHg 86%
    17:00 +23°C° 0.8 mm 1 mps 672 mmHg 90%
    18:00 +21°C° 0.8 mm 1 mps 672 mmHg 94%
    19:00 +21°C° 0 mm 1 mps 673 mmHg 95%
    20:00 +20°C° 0 mm 1 mps 673 mmHg 95%
    21:00 +20°C° 0 mm 1 mps 674 mmHg 95%
    22:00 +20°C° 0.3 mm 1 mps 674 mmHg 95%
    23:00 +20°C° 0.3 mm 1 mps 674 mmHg 96%

    Tomorrow, 22 October, Tuesday

    Time Temperature Precipitation Wind Pressure Humidity
    00:00 +20°C° 0.3 mm 1 mps 673 mmHg 97%
    01:00 +20°C° 0.2 mm 1 mps 673 mmHg 97%
    02:00 +18°C° 0.2 mm 0 mps 673 mmHg 96%
    03:00 +18°C° 0.2 mm 0 mps 672 mmHg 96%
    04:00 +18°C° 0 mm 0 mps 673 mmHg 95%
    05:00 +18°C° 0 mm 0 mps 673 mmHg 94%
    06:00 +18°C° 0 mm 0 mps 673 mmHg 92%
    07:00 +20°C° 0 mm 0 mps 674 mmHg 86%
    08:00 +22°C° 0 mm 0 mps 674 mmHg 79%
    09:00 +26°C° 0 mm 1 mps 675 mmHg 73%
    10:00 +27°C° 0.1 mm 1 mps 674 mmHg 70%
    11:00 +27°C° 0.1 mm 2 mps 674 mmHg 67%
    12:00 +28°C° 0.1 mm 2 mps 674 mmHg 64%
    13:00 +27°C° 1.2 mm 2 mps 673 mmHg 69%
    14:00 +27°C° 1.2 mm 2 mps 672 mmHg 74%
    15:00 +26°C° 1.2 mm 1 mps 672 mmHg 79%
    16:00 +25°C° 0.8 mm 1 mps 672 mmHg 84%
    17:00 +23°C° 0.8 mm 1 mps 672 mmHg 89%
    18:00 +20°C° 0.8 mm 0 mps 672 mmHg 93%
    19:00 +20°C° 0.3 mm 0 mps 672 mmHg 93%
    20:00 +20°C° 0.3 mm 0 mps 673 mmHg 93%
    21:00 +20°C° 0.3 mm 0 mps 673 mmHg 93%
    22:00 +19°C° 0.1 mm 0 mps 673 mmHg 93%
    23:00 +19°C° 0.1 mm 0 mps 673 mmHg 93%

    Day after tomorrow, 23 October, Wednesday

    Time Temperature Precipitation Wind Pressure Humidity
    00:00 +19°C° 0.1 mm 0 mps 672 mmHg 93%
    01:00 +18°C° 0 mm 0 mps 672 mmHg 94%
    02:00 +18°C° 0 mm 0 mps 672 mmHg 94%
    03:00 +18°C° 0 mm 0 mps 671 mmHg 94%
    04:00 +18°C° 0 mm 0 mps 671 mmHg 95%
    05:00 +18°C° 0 mm 0 mps 672 mmHg 95%
    06:00 +17°C° 0 mm 0 mps 672 mmHg 95%
    07:00 +22°C° 0 mm 1 mps 673 mmHg 89%
    08:00 +24°C° 0 mm 1 mps 674 mmHg 84%
    09:00 +26°C° 0 mm 1 mps 674 mmHg 78%
    10:00 +26°C° 0.3 mm 1 mps 674 mmHg 73%
    11:00 +27°C° 0.3 mm 1 mps 673 mmHg 69%
    12:00 +28°C° 0.3 mm 2 mps 673 mmHg 64%
    13:00 +28°C° 1.1 mm 1 mps 672 mmHg 67%
    14:00 +27°C° 1.1 mm 1 mps 672 mmHg 69%
    15:00 +27°C° 1.1 mm 1 mps 671 mmHg 72%
    16:00 +25°C° 1.2 mm 1 mps 671 mmHg 78%
    17:00 +24°C° 1.2 mm 1 mps 671 mmHg 85%
    18:00 +22°C° 1.2 mm 1 mps 671 mmHg 91%
    19:00 +22°C° 0.2 mm 1 mps 672 mmHg 92%
    20:00 +21°C° 0.2 mm 1 mps 672 mmHg 92%
    21:00 +21°C° 0.2 mm 1 mps 672 mmHg 93%
    22:00 +20°C° 0 mm 1 mps 672 mmHg 94%
    23:00 +20°C° 0 mm 1 mps 672 mmHg 94%

    24 October, Thursday

    Time Temperature Precipitation Wind Pressure Humidity
    00:00 +20°C° 0 mm 1 mps 671 mmHg 95%
    01:00 +20°C° 0 mm 1 mps 671 mmHg 95%
    02:00 +19°C° 0 mm 1 mps 671 mmHg 95%
    03:00 +19°C° 0 mm 1 mps 671 mmHg 95%
    04:00 +19°C° 0 mm 1 mps 671 mmHg 95%
    05:00 +19°C° 0 mm 1 mps 671 mmHg 95%
    06:00 +19°C° 0 mm 1 mps 671 mmHg 95%
    07:00 +21°C° 0 mm 1 mps 672 mmHg 88%
    08:00 +23°C° 0 mm 1 mps 673 mmHg 80%
    09:00 +25°C° 0 mm 1 mps 674 mmHg 73%
    10:00 +26°C° 0 mm 1 mps 673 mmHg 67%
    11:00 +28°C° 0 mm 2 mps 673 mmHg 61%
    12:00 +29°C° 0 mm 2 mps 673 mmHg 55%
    13:00 +28°C° 0.2 mm 2 mps 672 mmHg 57%
    14:00 +28°C° 0.2 mm 2 mps 672 mmHg 59%
    15:00 +28°C° 0.2 mm 2 mps 671 mmHg 61%
    16:00 +26°C° 0.5 mm 1 mps 671 mmHg 70%
    17:00 +24°C° 0.5 mm 1 mps 671 mmHg 80%
    18:00 +22°C° 0.5 mm 1 mps 671 mmHg 89%
    19:00 +21°C° 0.2 mm 1 mps 671 mmHg 90%
    20:00 +21°C° 0.2 mm 1 mps 672 mmHg 91%
    21:00 +20°C° 0.2 mm 1 mps 672 mmHg 92%
    22:00 +18°C° 0 mm 0 mps 672 mmHg 92%
    23:00 +18°C° 0 mm 0 mps 672 mmHg 92%

    25 October, Friday

    Time Temperature Precipitation Wind Pressure Humidity
    00:00 +17°C° 0 mm 0 mps 671 mmHg 92%
    01:00 +17°C° 0 mm 0 mps 671 mmHg 92%
    02:00 +17°C° 0 mm 0 mps 671 mmHg 92%
    03:00 +17°C° 0 mm 0 mps 671 mmHg 92%
    04:00 +17°C° 0 mm 0 mps 671 mmHg 92%
    05:00 +16°C° 0 mm 0 mps 671 mmHg 93%
    06:00 +16°C° 0 mm 0 mps 671 mmHg 93%
    07:00 +19°C° 0 mm 0 mps 672 mmHg 84%
    08:00 +22°C° 0 mm 0 mps 673 mmHg 76%
    09:00 +25°C° 0 mm 0 mps 674 mmHg 67%
    10:00 +27°C° 0 mm 1 mps 673 mmHg 63%
    11:00 +28°C° 0 mm 1 mps 673 mmHg 59%
    12:00 +29°C° 0 mm 2 mps 673 mmHg 55%
    13:00 +28°C° 0.7 mm 2 mps 672 mmHg 60%
    14:00 +28°C° 0.7 mm 1 mps 671 mmHg 66%
    15:00 +27°C° 0.7 mm 1 mps 670 mmHg 71%
    16:00 +25°C° 0.8 mm 1 mps 671 mmHg 78%
    17:00 +23°C° 0.8 mm 1 mps 671 mmHg 84%
    18:00 +22°C° 0.8 mm 1 mps 671 mmHg 91%
    19:00 +19°C° 0.4 mm 0 mps 671 mmHg 91%
    20:00 +19°C° 0.4 mm 0 mps 671 mmHg 92%
    21:00 +19°C° 0.4 mm 0 mps 672 mmHg 92%
    22:00 +18°C° 0.1 mm 0 mps 672 mmHg 92%
    23:00 +18°C° 0.1 mm 0 mps 672 mmHg 92%

    26 October, Saturday

    Time Temperature Precipitation Wind Pressure Humidity
    00:00 +18°C° 0.1 mm 0 mps 672 mmHg 92%
    01:00 +18°C° 0 mm 0 mps 671 mmHg 93%
    02:00 +18°C° 0 mm 0 mps 671 mmHg 93%
    03:00 +17°C° 0 mm 0 mps 671 mmHg 93%
    04:00 +17°C° 0 mm 0 mps 671 mmHg 93%
    05:00 +17°C° 0 mm 0 mps 671 mmHg 94%
    06:00 +17°C° 0 mm 0 mps 671 mmHg 94%
    07:00 +21°C° 0 mm 1 mps 672 mmHg 87%
    08:00 +24°C° 0 mm 1 mps 673 mmHg 80%
    09:00 +26°C° 0 mm 1 mps 674 mmHg 72%
    10:00 +27°C° 0 mm 1 mps 673 mmHg 67%
    11:00 +28°C° 0 mm 1 mps 673 mmHg 62%
    12:00 +29°C° 0 mm 1 mps 673 mmHg 56%
    13:00 +29°C° 0.4 mm 1 mps 672 mmHg 59%
    14:00 +28°C° 0.4 mm 1 mps 672 mmHg 62%
    15:00 +28°C° 0.4 mm 1 mps 671 mmHg 65%
    16:00 +26°C° 0.9 mm 1 mps 671 mmHg 73%
    17:00 +24°C° 0.9 mm 1 mps 671 mmHg 81%
    18:00 +22°C° 0.9 mm 1 mps 672 mmHg 89%
    19:00 +21°C° 0.3 mm 1 mps 672 mmHg 90%
    20:00 +21°C° 0.3 mm 1 mps 672 mmHg 91%
    21:00 +20°C° 0.3 mm 1 mps 673 mmHg 91%
    22:00 +20°C° 0.1 mm 1 mps 673 mmHg 93%
    23:00 +20°C° 0.1 mm 1 mps 673 mmHg 94%

    27 October, Sunday

    Time Temperature Precipitation Wind Pressure Humidity
    00:00 +19°C° 0.1 mm 2 mps 673 mmHg 95%
    01:00 +19°C° 0 mm 2 mps 672 mmHg 96%
    02:00 +18°C° 0 mm 2 mps 672 mmHg 97%
    03:00 +18°C° 0 mm 2 mps 672 mmHg 98%
    04:00 +18°C° 0 mm 2 mps 672 mmHg 98%
    05:00 +18°C° 0 mm 2 mps 672 mmHg 98%
    06:00 +18°C° 0 mm 2 mps 672 mmHg 98%
    07:00 +19°C° 0 mm 2 mps 673 mmHg 95%
    08:00 +20°C° 0 mm 2 mps 673 mmHg 92%
    09:00 +21°C° 0 mm 2 mps 674 mmHg 89%
    10:00 +23°C° 0 mm 2 mps 674 mmHg 83%
    11:00 +24°C° 0 mm 3 mps 673 mmHg 78%
    12:00 +25°C° 0 mm 3 mps 673 mmHg 72%
    13:00 +26°C° 0 mm 3 mps 673 mmHg 70%
    14:00 +26°C° 0 mm 3 mps 672 mmHg 69%
    15:00 +27°C° 0 mm 3 mps 672 mmHg 67%
    16:00 +25°C° 0.2 mm 2 mps 672 mmHg 76%
    17:00 +23°C° 0.2 mm 2 mps 672 mmHg 84%
    18:00 +20°C° 0.2 mm 2 mps 672 mmHg 93%
    19:00 +20°C° 0 mm 2 mps 672 mmHg 94%
    20:00 +20°C° 0 mm 2 mps 673 mmHg 95%
    21:00 +20°C° 0 mm 1 mps 673 mmHg 96%
    22:00 +20°C° 0 mm 1 mps 673 mmHg 96%
    23:00 +19°C° 0 mm 2 mps 673 mmHg 96%
    Show more